Regional Weather Roundup
Issued by NWS

Home | Current Version | Previous Version | Graphics & Text | Print | Product List | Glossary On
Versions: 1 2 3 4 5 6 7 8 9 10 11 12 13 14 15 16 17 18 19 20 21 22 23 24 25 26 27 28 29 30 31 32 33 34 35 36 37 38 39 40 41 42 43 44 45 46 47 48 49 50
000
ASUS43 KTOP 222259
RWRKS

WEATHER ROUNDUP FOR KANSAS
NATIONAL WEATHER SERVICE GOODLAND KS
600 PM CDT SAT APR 22 2017

NOTE:  "FAIR" INDICATES FEW OR NO CLOUDS BELOW 12,000 FEET WITH NO
SIGNIFICANT WEATHER AND/OR OBSTRUCTIONS TO VISIBILITY.

KSZ001>006-013>018-027>032-041>047-230000-
NORTHWEST KANSAS

CITY           SKY/WX    TMP DP  RH WIND       PRES   REMARKS
GOODLAND       MOSUNNY   57  31  37 NE7       30.24F
HAYS           MOSUNNY   59  31  34 N9        30.22S
HILL CITY      MOSUNNY   63  28  26 NE3       30.23S
RUSSELL        PTSUNNY   64  31  28 N10       30.19S
$$

KSZ061>065-074>080-084>089-230000-
SOUTHWEST KANSAS

CITY           SKY/WX    TMP DP  RH WIND       PRES   REMARKS
DODGE CITY     PTSUNNY   57  34  41 N10       30.24R
GARDEN CITY    CLOUDY    55  31  39 NE10      30.25S
GREAT BEND     MOSUNNY   60  35  39 N10G17    30.21S
LIBERAL        MOSUNNY   55  30  38 N15       30.25S
$$

KSZ066>073-081>083-090>101-230000-
SOUTHEAST KANSAS

CITY           SKY/WX    TMP DP  RH WIND       PRES   REMARKS
CHANUTE        CLOUDY    59  38  45 N5        30.09R
COFFEYVILLE    CLOUDY    57  41  55 NE3       30.11R
HUTCHINSON     CLOUDY    64  34  32 N12G21    30.17S
MEDICINE LODGE   N/A     59  35  40 N15G24    30.19S
NEWTON         PTSUNNY   61  39  44 N17G23    30.15S
PARSONS        CLOUDY    56  45  66 CALM      30.11R
WICHITA INTL   PTSUNNY   60  37  42 N16       30.14F
WICHITA JABRA  CLOUDY    60  40  47 N13       30.14S
WINFIELD       CLOUDY    59  41  51 N12       30.14S
$$

KSZ007>012-019>026-033>040-048>060-102>105-230000-
NORTHEAST KANSAS

CITY           SKY/WX    TMP DP  RH WIND       PRES   REMARKS
CONCORDIA      MOSUNNY   63  34  33 N13G20    30.19R
EMPORIA        CLOUDY    63  35  35 N16G23    30.12R
LAWRENCE       SUNNY     65  31  28 N18G24    30.12R
MANHATTAN      MOSUNNY   65  34  31 NE17G23   30.15S
OLATHE IND     SUNNY     63  31  30 N21G29    30.11R
OLATHE EXE     SUNNY     63  27  25 N21G30    30.10R
SALINA         SUNNY     66  33  29 N16       30.18S
TOPEKA BILLARD SUNNY     65  34  31 N18G26    30.13R
TOPEKA FORBES  MOSUNNY   66  34  30 N17       30.13R
$$




USA.gov is the U.S. government's official web portal to all federal, state and local government web resources and services.